Simultaneous Nadir Overpasses (SNOs) Predictions

Prediction of SNOs between GOES-15 and TERRA Satellite Orbit:

Table of predicted SNOs for the next 14.0 days since TLE Epoch: 8/31/2013
Index Date Time (GOES-15) GOES-15 Lat,Lon TERRA Lat,Lon Distance(km) Time Diff (sec)
1 08/31/2013 07:37:13 0.36,-135.34 0.12,-136.48 129.35 80
2 09/02/2013 07:22:21 0.35,-135.38 0.72,-133.52 211.08 80
3 09/02/2013 19:43:37 -0.37,-135.39 0.35,-138.68 374.38 80
4 09/04/2013 19:31:26 -0.37,-135.43 -0.32,-135.73 34.30 80
5 09/06/2013 19:21:54 -0.37,-135.46 -0.94,-132.77 305.21 80
6 09/07/2013 07:43:18 0.39,-135.47 -0.16,-137.96 284.53 80
7 09/09/2013 07:28:26 0.38,-135.49 0.47,-135.01 54.01 80
8 09/11/2013 07:16:14 0.37,-135.50 1.11,-132.05 391.70 80
9 09/11/2013 19:37:28
